Location: Bismarck
(46.7731°N, 100.8200°W)
Time: 17:49:45
(UTC-05:00)

ISS - All Passes

Search period start: 25 October 2014 00:00
Search period end: 03 November 2014 23:00
Orbit: 412 x 416 km, 51.6° (Epoch: 25 October)

Date Brightness Start Highest point End Pass type
(mag) Time Alt. Az. Time Alt. Az. Time Alt. Az.
25 Oct - 12:57:01 10° S 12:58:55 14° SE 13:00:49 10° E daylight
25 Oct - 14:31:49 10° WSW 14:35:09 81° SSE 14:38:30 10° ENE daylight
25 Oct - 16:08:56 10° WNW 16:12:05 37° N 16:15:13 10° ENE daylight
25 Oct - 17:46:03 10° WNW 17:49:15 40° NNE 17:52:26 10° E daylight
25 Oct - 19:22:46 10° WNW 19:26:05 62° SSW 19:29:23 10° SE visible
25 Oct - 21:01:24 10° WSW 21:02:11 11° SW 21:02:58 10° SW visible
26 Oct - 13:42:45 10° SW 13:46:00 52° SSE 13:49:15 10° ENE daylight
26 Oct - 15:19:33 10° W 15:22:46 43° NNW 15:25:59 10° ENE daylight
26 Oct - 16:56:48 10° WNW 16:59:55 35° N 17:03:02 10° ENE daylight
26 Oct - 18:33:32 10° WNW 18:36:53 86° NNE 18:40:14 10° ESE daylight
26 Oct - 20:10:54 10° W 20:13:13 18° SW 20:15:30 10° S visible
27 Oct - 12:53:51 10° SSW 12:56:51 32° SE 12:59:53 10° ENE daylight
27 Oct - 14:30:10 10° W 14:33:27 55° NNW 14:36:45 10° ENE daylight
27 Oct - 16:07:27 10° WNW 16:10:33 34° N 16:13:38 10° ENE daylight
27 Oct - 17:44:18 10° WNW 17:47:37 61° NNE 17:50:56 10° ESE daylight
27 Oct - 19:21:14 10° W 19:24:08 28° SW 19:27:02 10° SSE visible
28 Oct - 12:05:13 10° S 12:07:45 20° SE 12:10:18 10° E daylight
28 Oct - 13:40:48 10° WSW 13:44:08 76° NNW 13:47:29 10° ENE daylight
28 Oct - 15:18:03 10° WNW 15:21:09 34° N 15:24:15 10° ENE daylight
28 Oct - 16:55:02 10° WNW 16:58:17 46° NNE 17:01:31 10° E daylight
28 Oct - 18:31:47 10° WNW 18:34:59 44° SW 18:38:10 10° SE daylight
29 Oct - 11:17:08 10° SSE 11:18:40 13° SE 11:20:12 10° ESE daylight
29 Oct - 12:51:32 10° SW 12:54:51 73° SSE 12:58:11 10° ENE daylight
29 Oct - 14:28:34 10° W 14:31:43 38° N 14:34:53 10° ENE daylight
29 Oct - 16:05:43 10° WNW 16:08:53 38° N 16:12:02 10° E daylight
29 Oct - 17:42:25 10° WNW 17:45:45 70° SSW 17:49:03 10° SE daylight
29 Oct - 19:20:30 10° WSW 19:21:54 12° SW 19:23:18 10° SSW visible
30 Oct - 12:02:23 10° SW 12:05:34 46° SE 12:08:47 10° ENE daylight
30 Oct - 13:39:03 10° W 13:42:17 45° NNW 13:45:31 10° ENE daylight
30 Oct - 15:16:19 10° WNW 15:19:25 35° N 15:22:31 10° ENE daylight
30 Oct - 16:53:04 10° WNW 16:56:25 79° NNE 16:59:45 10° ESE daylight
30 Oct - 18:30:17 10° W 18:32:47 20° SW 18:35:16 10° S daylight
31 Oct - 11:13:25 10° SSW 11:16:19 28° SE 11:19:15 10° E daylight
31 Oct - 12:49:33 10° WSW 12:52:51 59° NNW 12:56:10 10° ENE daylight
31 Oct - 14:26:50 10° WNW 14:29:55 34° N 14:33:00 10° ENE daylight
31 Oct - 16:03:43 10° WNW 16:07:00 56° NNE 16:10:18 10° E daylight
31 Oct - 17:40:34 10° WNW 17:43:34 31° SW 17:46:34 10° SSE daylight
01 Nov - 10:24:46 10° S 10:27:06 18° SE 10:29:27 10° E daylight
01 Nov - 12:00:06 10° WSW 12:03:26 84° NNW 12:06:46 10° ENE daylight
01 Nov - 13:37:17 10° WNW 13:40:24 35° N 13:43:30 10° ENE daylight
01 Nov - 15:14:19 10° WNW 15:17:32 44° NNE 15:20:45 10° E daylight
01 Nov - 16:51:02 10° WNW 16:54:16 50° SSW 16:57:30 10° SE daylight
02 Nov - 08:36:58 10° SSE 08:37:55 11° SE 08:38:51 10° ESE daylight
02 Nov - 10:10:44 10° SW 10:14:01 64° SSE 10:17:20 10° ENE daylight
02 Nov - 11:47:41 10° W 11:50:51 39° NNW 11:54:01 10° ENE daylight
02 Nov - 13:24:51 10° WNW 13:28:00 37° N 13:31:08 10° ENE daylight
02 Nov - 15:01:33 10° WNW 15:04:53 79° SSW 15:08:13 10° ESE daylight
02 Nov - 16:39:17 10° W 16:41:06 14° SW 16:42:55 10° SSW daylight
03 Nov - 09:21:30 10° SW 09:24:38 40° SE 09:27:47 10° ENE daylight
03 Nov - 10:58:03 10° W 11:01:18 48° NNW 11:04:33 10° ENE daylight
03 Nov - 12:35:19 10° WNW 12:38:24 34° N 12:41:30 10° ENE daylight
03 Nov - 14:12:05 10° WNW 14:15:25 71° NNE 14:18:45 10° ESE daylight
03 Nov - 15:49:10 10° W 15:51:50 22° SW 15:54:30 10° SSE daylight
